TimePDT,TemperatureF,Dew PointF,Humidity,Sea Level PressureIn,VisibilityMPH,Wind Direction,Wind SpeedMPH,Gust SpeedMPH,PrecipitationIn,Events,Conditions,WindDirDegrees,DateUTC
12:53 AM,17.1,10.9,77,30.00,-9999.0,ESE,9.2,23.0,N/A,,Clear,110,2013-10-29 07:53:00
1:53 AM,17.1,10.9,77,29.98,-9999.0,ESE,9.2,-,N/A,,Clear,120,2013-10-29 08:53:00
2:53 AM,16.0,10.9,81,30.01,-9999.0,ESE,13.8,24.2,N/A,,Clear,120,2013-10-29 09:53:00
3:53 AM,17.1,12.0,81,29.99,-9999.0,ESE,11.5,20.7,N/A,,Clear,110,2013-10-29 10:53:00
4:53 AM,16.0,10.9,81,30.02,-9999.0,Variable,6.9,19.6,N/A,,Clear,0,2013-10-29 11:53:00
5:53 AM,15.1,10.9,84,30.03,-9999.0,ESE,8.1,-,N/A,,Clear,120,2013-10-29 12:53:00
6:53 AM,15.1,10.9,84,30.02,-9999.0,SE,12.7,19.6,N/A,,Clear,140,2013-10-29 13:53:00
7:53 AM,16.0,10.9,81,30.04,-9999.0,SSE,10.4,19.6,N/A,,Clear,150,2013-10-29 14:53:00
8:53 AM,18.0,12.0,78,30.05,-9999.0,SSE,11.5,19.6,N/A,,Clear,150,2013-10-29 15:53:00
9:53 AM,19.9,12.9,74,30.06,-9999.0,Variable,6.9,-,N/A,,Clear,0,2013-10-29 16:53:00
10:53 AM,23.0,14.0,68,30.04,-9999.0,Variable,5.8,-,N/A,,Clear,0,2013-10-29 17:53:00
11:53 AM,26.1,15.1,63,30.04,-9999.0,Variable,4.6,-,N/A,,Clear,0,2013-10-29 18:53:00
12:53 PM,30.9,17.1,57,30.01,-9999.0,Calm,Calm,-,N/A,,Clear,0,2013-10-29 19:53:00
1:53 PM,33.1,17.1,52,30.00,-9999.0,Variable,3.5,-,N/A,,Clear,0,2013-10-29 20:53:00
2:53 PM,33.1,17.1,52,29.99,-9999.0,Calm,Calm,-,N/A,,Clear,0,2013-10-29 21:53:00
3:53 PM,32.0,18.0,56,30.00,-9999.0,NW,4.6,-,N/A,,Clear,320,2013-10-29 22:53:00
4:53 PM,28.9,18.0,64,30.03,-9999.0,NW,3.5,-,N/A,,Clear,320,2013-10-29 23:53:00
5:53 PM,27.0,18.0,69,30.05,-9999.0,Variable,4.6,-,N/A,,Clear,0,2013-10-30 00:53:00
6:53 PM,25.0,18.0,75,30.07,-9999.0,Variable,5.8,-,N/A,,Clear,0,2013-10-30 01:53:00
7:53 PM,24.1,18.0,77,30.07,-9999.0,NW,6.9,-,N/A,,Clear,310,2013-10-30 02:53:00
8:53 PM,24.1,17.1,75,30.06,-9999.0,WNW,5.8,-,N/A,,Clear,300,2013-10-30 03:53:00
9:53 PM,23.0,18.0,81,30.05,-9999.0,WNW,5.8,-,N/A,,Clear,300,2013-10-30 04:53:00
10:53 PM,24.1,18.0,77,30.02,-9999.0,WSW,5.8,-,N/A,,Clear,250,2013-10-30 05:53:00
11:53 PM,23.0,18.0,81,30.01,-9999.0,WNW,5.8,-,N/A,,Clear,290,2013-10-30 06:53:00